カタログに戻る

STARLINK-4645

運用中通信VLEO
NORAD 53743·PAYLOAD·🇺🇸 United States

打ち上げ Sep 5, 2022 から Cape Canaveral Space Force Station

Loading…

次のパス (今後24時間)

TLE

最新Source: CelesTrak SupGP

元期: Sep 14, 2026, 20:54 UTC

1 53743C 22107AV  26257.87131944 -.00039197  00000+0 -11583-2 0  2570
2 53743  53.1562 119.9020 0001263  89.7595  51.5408 15.34404164    19

AllMySatでSTARLINK-4645をリアルタイム追跡

Download on the App Store